Location: Newark
(25.6108°S, 54.5803°W)
Time: 16:54:42
(UTC+00:00)

Transit 4A - Visible Passes

Search period start: 21 October 2020 00:00
Search period end: 31 October 2020 00:00
Orbit: 862 x 982 km, 66.8° (Epoch: 20 October)

Date Brightness Start Highest point End Pass type
(mag) Time Alt. Az. Time Alt. Az. Time Alt. Az.
21 Oct 10.2 06:25:02 10° NE 06:28:42 17° ENE 06:32:20 10° ESE visible
21 Oct 8.1 08:08:42 10° NW 08:14:35 51° WSW 08:20:21 10° S visible
22 Oct 9.5 06:35:02 20° NNE 06:37:51 28° ENE 06:42:48 10° SE visible
22 Oct 8.7 08:18:40 10° WNW 08:23:58 32° WSW 08:29:12 10° S visible
23 Oct 8.7 06:44:56 33° NNE 06:47:02 45° ENE 06:52:40 10° SE visible
23 Oct 9.2 08:29:08 10° WNW 08:33:27 20° WSW 08:37:43 10° SSW visible
24 Oct 7.9 06:54:42 51° N 06:56:15 74° ENE 07:02:11 10° SSE visible
25 Oct 10.5 05:20:49 11° E 05:20:49 11° E 05:21:36 10° E visible
25 Oct 7.8 07:04:22 55° WNW 07:05:32 69° WSW 07:11:28 10° SSE visible
26 Oct 10.0 05:30:23 18° E 05:30:23 18° E 05:33:08 10° ESE visible
26 Oct 8.2 07:13:56 40° W 07:14:53 42° WSW 07:20:29 10° S visible
27 Oct 9.5 05:39:54 27° ESE 05:39:54 27° ESE 05:43:19 10° SE visible
27 Oct 8.9 07:23:25 26° WSW 07:24:19 27° WSW 07:29:15 10° S visible
28 Oct 9.1 05:49:18 37° SE 05:49:18 37° SE 05:53:02 10° SE visible
28 Oct 9.4 07:32:49 16° WSW 07:33:49 17° WSW 07:37:34 10° SSW visible
29 Oct 8.8 05:58:38 43° SSE 05:58:38 43° SSE 06:02:28 10° SSE visible
29 Oct 9.9 07:42:58 10° WSW 07:43:26 10° SW 07:43:55 10° SW visible
30 Oct 8.9 06:07:56 38° S 06:07:56 38° S 06:11:39 10° SSE visible
